Private Wetterstation Wechselburg
Wetterdaten: Dienstag, 19.01.2016
Datum Zeit Temp. +2m Bodentemp. Temp.+5cm Temp. Wind Windchill X Diff Temp. Feuchte +2m Feuchte +5cm Sonnenschein Luftdruck Regen Wind Richtung Richtung Sonnenschein Taupunkt Windchill Windben
19.01.2016 00:00 -12,9 C 21,4 C -11,7 C -13,1 C -13,6 C 0,0 C 85 % 89 % 0 % 1019,4 hPa 0,0 l/m 0,0 km/h (0 Bft) W 270 0 min -14,9 C -13,6 C 0,0 km/h (0 Bft)
19.01.2016 00:05 -12,9 C 21,4 C -11,7 C -13,1 C -13,6 C 0,0 C 85 % 89 % 0 % 1019,4 hPa 0,0 l/m 0,0 km/h (0 Bft) W 270 0 min -14,9 C -13,6 C 0,0 km/h (0 Bft)
19.01.2016 00:10 -12,9 C 21,4 C -11,6 C -13,1 C -13,5 C 0,0 C 85 % 89 % 0 % 1019,5 hPa 0,0 l/m 0,0 km/h (0 Bft) SW 225 0 min -14,9 C -13,5 C 0,0 km/h (0 Bft)
19.01.2016 00:15 -12,9 C 21,4 C -11,5 C -13,1 C -13,4 C 0,0 C 85 % 89 % 0 % 1019,5 hPa 0,0 l/m 0,0 km/h (0 Bft) SW 225 0 min -14,9 C -13,4 C 0,0 km/h (0 Bft)
19.01.2016 00:20 -12,9 C 21,3 C -11,5 C -13,1 C -13,4 C 0,0 C 85 % 89 % 0 % 1019,5 hPa 0,0 l/m 0,0 km/h (0 Bft) SW 225 0 min -14,9 C -13,4 C 0,0 km/h (0 Bft)
19.01.2016 00:25 -12,9 C 21,3 C -11,6 C -13,1 C -13,5 C 0,0 C 85 % 89 % 0 % 1019,5 hPa 0,0 l/m 0,0 km/h (0 Bft) SW 225 0 min -14,9 C -13,5 C 0,0 km/h (0 Bft)
19.01.2016 00:30 -13,0 C 21,3 C -11,7 C -13,2 C -13,5 C 0,0 C 85 % 89 % 0 % 1019,3 hPa 0,0 l/m 0,0 km/h (0 Bft) S-SW 202 0 min -15,0 C -13,5 C 0,0 km/h (0 Bft)
19.01.2016 00:35 -13,0 C 21,3 C -11,7 C -13,2 C -13,5 C 0,0 C 85 % 89 % 0 % 1019,3 hPa 0,0 l/m 0,0 km/h (0 Bft) W 270 0 min -15,0 C -13,5 C 0,0 km/h (0 Bft)
19.01.2016 00:41 -12,9 C 21,3 C -11,7 C -13,1 C -13,6 C 0,0 C 85 % 89 % 0 % 1019,3 hPa 0,0 l/m 0,0 km/h (0 Bft) N 0 0 min -14,9 C -13,6 C 0,0 km/h (0 Bft)
19.01.2016 00:50 -13,1 C 21,3 C -11,6 C -13,3 C -13,6 C 0,0 C 85 % 89 % 0 % 1019,2 hPa 0,0 l/m 0,0 km/h (0 Bft) S-SW 202 0 min -15,1 C -13,6 C 0,0 km/h (0 Bft)
19.01.2016 00:55 -13,1 C 21,3 C -11,6 C -13,3 C -13,6 C 0,0 C 85 % 89 % 0 % 1019,2 hPa 0,0 l/m 0,0 km/h (0 Bft) SW 225 0 min -15,1 C -13,6 C 0,0 km/h (0 Bft)
19.01.2016 01:00 -13,1 C 21,3 C -11,7 C -13,3 C -13,6 C 0,0 C 85 % 89 % 0 % 1019,2 hPa 0,0 l/m 0,0 km/h (0 Bft) W 270 0 min -15,1 C -13,6 C 0,0 km/h (0 Bft)
19.01.2016 01:05 -13,2 C 21,3 C -11,7 C -13,3 C -13,6 C 0,0 C 85 % 89 % 0 % 1019,2 hPa 0,0 l/m 0,0 km/h (0 Bft) W 270 0 min -15,2 C -13,6 C 0,0 km/h (0 Bft)
19.01.2016 01:10 -13,2 C 21,3 C -11,7 C -13,3 C -13,6 C 0,0 C 85 % 89 % 0 % 1019,1 hPa 0,0 l/m 0,0 km/h (0 Bft) W 270 0 min -15,2 C -13,6 C 0,0 km/h (0 Bft)
19.01.2016 01:15 -13,2 C 21,3 C -11,7 C -13,3 C -13,5 C 0,0 C 85 % 89 % 0 % 1019,1 hPa 0,0 l/m 0,0 km/h (0 Bft) W 270 0 min -15,2 C -13,5 C 0,0 km/h (0 Bft)
19.01.2016 01:20 -13,2 C 21,3 C -11,7 C -13,3 C -13,5 C 0,0 C 85 % 89 % 0 % 1019,1 hPa 0,0 l/m 0,0 km/h (0 Bft) SW 225 0 min -15,2 C -13,5 C 0,0 km/h (0 Bft)
19.01.2016 01:25 -13,2 C 21,3 C -11,5 C -13,3 C -13,4 C 0,0 C 85 % 89 % 0 % 1019,1 hPa 0,0 l/m 0,0 km/h (0 Bft) W 270 0 min -15,2 C -13,4 C 0,0 km/h (0 Bft)
19.01.2016 01:30 -13,1 C 21,3 C -11,5 C -13,2 C -13,4 C 0,0 C 85 % 89 % 0 % 1018,9 hPa 0,0 l/m 0,0 km/h (0 Bft) W 270 0 min -15,1 C -13,4 C 0,0 km/h (0 Bft)
19.01.2016 01:35 -13,2 C 21,3 C -11,7 C -13,3 C -13,5 C 0,0 C 85 % 89 % 0 % 1018,9 hPa 0,0 l/m 0,0 km/h (0 Bft) NW 315 0 min -15,2 C -13,5 C 0,0 km/h (0 Bft)
19.01.2016 01:40 -13,2 C 21,3 C -11,8 C -13,3 C -13,5 C 0,0 C 85 % 89 % 0 % 1018,9 hPa 0,0 l/m 0,0 km/h (0 Bft) O 90 0 min -15,2 C -13,5 C 0,0 km/h (0 Bft)
19.01.2016 01:45 -13,1 C 21,3 C -11,9 C -13,2 C -13,4 C 0,0 C 85 % 89 % 0 % 1018,9 hPa 0,0 l/m 0,0 km/h (0 Bft) O-SO 112 0 min -15,1 C -13,4 C 0,0 km/h (0 Bft)
19.01.2016 01:50 -13,1 C 21,3 C -12,0 C -13,2 C -13,4 C 0,0 C 85 % 89 % 0 % 1018,9 hPa 0,0 l/m 0,0 km/h (0 Bft) O-SO 112 0 min -15,1 C -13,4 C 0,0 km/h (0 Bft)
19.01.2016 01:55 -13,1 C 21,3 C -11,9 C -13,2 C -13,5 C 0,0 C 85 % 89 % 0 % 1018,9 hPa 0,0 l/m 0,0 km/h (0 Bft) W-SW 247 0 min -15,1 C -13,5 C 0,0 km/h (0 Bft)
19.01.2016 02:00 -13,1 C 21,3 C -11,7 C -13,3 C -13,6 C 0,0 C 85 % 89 % 0 % 1018,9 hPa 0,0 l/m 0,0 km/h (0 Bft) W-SW 247 0 min -15,1 C -13,6 C 0,0 km/h (0 Bft)
19.01.2016 02:05 -13,1 C 21,3 C -11,7 C -13,3 C -13,6 C 0,0 C 85 % 89 % 0 % 1018,9 hPa 0,0 l/m 0,0 km/h (0 Bft) W-SW 247 0 min -15,1 C -13,6 C 0,0 km/h (0 Bft)
19.01.2016 02:10 -13,1 C 21,3 C -11,7 C -13,3 C -13,7 C 0,0 C 85 % 89 % 0 % 1018,9 hPa 0,0 l/m 0,0 km/h (0 Bft) W-SW 247 0 min -15,1 C -13,7 C 0,0 km/h (0 Bft)
19.01.2016 02:15 -13,1 C 21,3 C -11,9 C -13,3 C -13,7 C 0,0 C 85 % 89 % 0 % 1018,9 hPa 0,0 l/m 0,0 km/h (0 Bft) W-SW 247 0 min -15,1 C -13,7 C 0,0 km/h (0 Bft)
19.01.2016 02:20 -13,1 C 21,2 C -11,9 C -13,3 C -13,7 C 0,0 C 85 % 89 % 0 % 1018,9 hPa 0,0 l/m 0,0 km/h (0 Bft) O 90 0 min -15,1 C -13,7 C 0,0 km/h (0 Bft)
19.01.2016 02:25 -13,2 C 21,3 C -12,0 C -13,4 C -13,7 C 0,0 C 85 % 89 % 0 % 1018,9 hPa 0,0 l/m 0,0 km/h (0 Bft) W-SW 247 0 min -15,2 C -13,7 C 0,0 km/h (0 Bft)
19.01.2016 02:30 -13,1 C 21,3 C -12,0 C -13,4 C -13,9 C 0,0 C 85 % 89 % 0 % 1019,1 hPa 0,0 l/m 0,0 km/h (0 Bft) W 270 0 min -15,1 C -13,9 C 0,0 km/h (0 Bft)
19.01.2016 02:35 -13,1 C 21,3 C -11,9 C -13,4 C -13,9 C 0,0 C 85 % 89 % 0 % 1019,1 hPa 0,0 l/m 0,0 km/h (0 Bft) W 270 0 min -15,1 C -13,9 C 0,0 km/h (0 Bft)
19.01.2016 02:40 -13,3 C 21,3 C -12,1 C -13,5 C -14,0 C 0,0 C 85 % 89 % 0 % 1019,1 hPa 0,0 l/m 0,0 km/h (0 Bft) W 270 0 min -15,3 C -14,0 C 0,0 km/h (0 Bft)
19.01.2016 02:45 -13,3 C 21,2 C -12,1 C -13,6 C -14,1 C 0,0 C 85 % 89 % 0 % 1019,1 hPa 0,0 l/m 0,0 km/h (0 Bft) W-SW 247 0 min -15,3 C -14,1 C 0,0 km/h (0 Bft)
19.01.2016 02:50 -13,4 C 21,2 C -12,1 C -13,7 C -14,2 C 0,0 C 85 % 89 % 0 % 1018,3 hPa 0,0 l/m 0,0 km/h (0 Bft) W-SW 247 0 min -15,4 C -14,2 C 0,0 km/h (0 Bft)
19.01.2016 02:55 -13,3 C 21,2 C -12,1 C -13,6 C -14,2 C 0,0 C 85 % 89 % 0 % 1018,3 hPa 0,0 l/m 0,0 km/h (0 Bft) W-SW 247 0 min -15,3 C -14,2 C 0,0 km/h (0 Bft)
19.01.2016 03:00 -13,5 C 21,2 C -12,3 C -13,8 C -14,3 C 0,0 C 85 % 89 % 0 % 1018,3 hPa 0,0 l/m 0,0 km/h (0 Bft) W-SW 247 0 min -15,5 C -14,3 C 0,0 km/h (0 Bft)
19.01.2016 03:05 -13,5 C 21,2 C -12,3 C -13,8 C -14,5 C 0,0 C 85 % 89 % 0 % 1018,3 hPa 0,0 l/m 0,0 km/h (0 Bft) NW 315 0 min -15,5 C -14,5 C 0,0 km/h (0 Bft)
19.01.2016 03:10 -13,6 C 21,2 C -12,5 C -13,9 C -14,5 C 0,0 C 85 % 89 % 0 % 1018,2 hPa 0,0 l/m 0,0 km/h (0 Bft) NW 315 0 min -15,6 C -14,5 C 0,0 km/h (0 Bft)
19.01.2016 03:15 -13,6 C 21,2 C -12,5 C -13,9 C -14,5 C 0,0 C 85 % 89 % 0 % 1018,2 hPa 0,0 l/m 0,0 km/h (0 Bft) NW 315 0 min -15,6 C -14,5 C 0,0 km/h (0 Bft)
19.01.2016 03:20 -13,5 C 21,2 C -12,5 C -13,9 C -14,6 C 0,0 C 85 % 89 % 0 % 1018,2 hPa 0,0 l/m 0,0 km/h (0 Bft) NW 315 0 min -15,5 C -14,6 C 0,0 km/h (0 Bft)
19.01.2016 03:25 -13,7 C 21,2 C -12,5 C -14,0 C -14,7 C 0,0 C 85 % 89 % 0 % 1018,2 hPa 0,0 l/m 0,0 km/h (0 Bft) W 270 0 min -15,7 C -14,7 C 0,0 km/h (0 Bft)
19.01.2016 03:30 -13,7 C 21,2 C -12,5 C -14,1 C -14,8 C 0,0 C 85 % 89 % 0 % 1017,9 hPa 0,0 l/m 0,0 km/h (0 Bft) W 270 0 min -15,7 C -14,8 C 0,0 km/h (0 Bft)
19.01.2016 03:35 -13,7 C 21,3 C -12,5 C -14,0 C -14,7 C 0,0 C 85 % 89 % 0 % 1017,9 hPa 0,0 l/m 0,0 km/h (0 Bft) N-NW 337 0 min -15,7 C -14,7 C 0,0 km/h (0 Bft)
19.01.2016 03:41 -13,7 C 21,3 C -12,5 C -14,0 C -14,7 C 0,0 C 85 % 89 % 0 % 1017,9 hPa 0,0 l/m 0,0 km/h (0 Bft) N 0 0 min -15,7 C -14,7 C 0,0 km/h (0 Bft)
19.01.2016 03:50 -13,7 C 21,3 C -12,9 C -14,0 C -14,7 C 0,0 C 85 % 88 % 0 % 1017,9 hPa 0,0 l/m 0,0 km/h (0 Bft) O-NO 67 0 min -15,7 C -14,7 C 0,0 km/h (0 Bft)
19.01.2016 03:55 -13,7 C 21,3 C -12,9 C -14,1 C -14,8 C 0,0 C 85 % 88 % 0 % 1017,9 hPa 0,0 l/m 0,0 km/h (0 Bft) O-NO 67 0 min -15,7 C -14,8 C 0,0 km/h (0 Bft)
19.01.2016 04:00 -13,9 C 21,3 C -12,9 C -14,3 C -15,0 C 0,0 C 85 % 88 % 0 % 1017,9 hPa 0,0 l/m 0,0 km/h (0 Bft) O-NO 67 0 min -15,9 C -15,0 C 0,0 km/h (0 Bft)
19.01.2016 04:05 -13,9 C 21,3 C -12,9 C -14,3 C -15,0 C 0,0 C 85 % 88 % 0 % 1017,9 hPa 0,0 l/m 0,0 km/h (0 Bft) O-NO 67 0 min -15,9 C -15,0 C 0,0 km/h (0 Bft)
19.01.2016 04:10 -14,0 C 21,3 C -12,9 C -14,4 C -15,1 C 0,0 C 85 % 88 % 0 % 1017,8 hPa 0,0 l/m 0,0 km/h (0 Bft) O-NO 67 0 min -16,0 C -15,1 C 0,0 km/h (0 Bft)
19.01.2016 04:15 -14,0 C 21,3 C -12,9 C -14,4 C -15,3 C 0,0 C 85 % 88 % 0 % 1017,8 hPa 0,0 l/m 0,0 km/h (0 Bft) O-NO 67 0 min -16,0 C -15,3 C 0,0 km/h (0 Bft)
19.01.2016 04:20 -14,1 C 21,3 C -13,0 C -14,5 C -15,3 C 0,0 C 84 % 88 % 0 % 1017,8 hPa 0,0 l/m 0,0 km/h (0 Bft) W-SW 247 0 min -16,2 C -15,3 C 0,0 km/h (0 Bft)
19.01.2016 04:25 -14,1 C 21,2 C -12,9 C -14,5 C -15,3 C 0,0 C 85 % 88 % 0 % 1017,8 hPa 0,0 l/m 0,0 km/h (0 Bft) W 270 0 min -16,1 C -15,3 C 0,0 km/h (0 Bft)
19.01.2016 04:30 -14,1 C 21,2 C -13,1 C -14,4 C -15,1 C 0,0 C 85 % 88 % 0 % 1017,8 hPa 0,0 l/m 0,0 km/h (0 Bft) W 270 0 min -16,1 C -15,1 C 0,0 km/h (0 Bft)
19.01.2016 04:35 -14,1 C 21,2 C -13,1 C -14,4 C -15,1 C 0,0 C 85 % 88 % 0 % 1017,8 hPa 0,0 l/m 0,0 km/h (0 Bft) W 270 0 min -16,1 C -15,1 C 0,0 km/h (0 Bft)
19.01.2016 04:40 -14,1 C 21,2 C -13,3 C -14,4 C -15,1 C 0,0 C 85 % 88 % 0 % 1017,8 hPa 0,0 l/m 0,0 km/h (0 Bft) O-NO 67 0 min -16,1 C -15,1 C 0,0 km/h (0 Bft)
19.01.2016 04:45 -14,1 C 21,2 C -13,3 C -14,5 C -15,3 C 0,0 C 85 % 88 % 0 % 1017,8 hPa 0,0 l/m 0,0 km/h (0 Bft) O-NO 67 0 min -16,1 C -15,3 C 0,0 km/h (0 Bft)
19.01.2016 04:50 -14,1 C 21,2 C -13,3 C -14,6 C -15,7 C 0,0 C 84 % 88 % 0 % 1017,4 hPa 0,0 l/m 0,0 km/h (0 Bft) W-SW 247 0 min -16,2 C -15,7 C 0,0 km/h (0 Bft)
19.01.2016 04:55 -14,3 C 21,2 C -13,3 C -14,8 C -15,9 C 0,0 C 84 % 88 % 0 % 1017,4 hPa 0,0 l/m 0,0 km/h (0 Bft) W-SW 247 0 min -16,4 C -15,9 C 0,0 km/h (0 Bft)
19.01.2016 05:00 -14,4 C 21,2 C -13,3 C -14,9 C -15,9 C 0,0 C 84 % 88 % 0 % 1017,4 hPa 0,0 l/m 0,0 km/h (0 Bft) W-NW 292 0 min -16,5 C -15,9 C 0,0 km/h (0 Bft)
19.01.2016 05:05 -14,4 C 21,2 C -13,3 C -14,8 C -15,7 C 0,0 C 84 % 88 % 0 % 1017,4 hPa 0,0 l/m 0,0 km/h (0 Bft) NW 315 0 min -16,5 C -15,7 C 0,0 km/h (0 Bft)
19.01.2016 05:10 -14,4 C 21,2 C -13,3 C -14,8 C -15,5 C 0,0 C 85 % 88 % 0 % 1017,9 hPa 0,0 l/m 0,0 km/h (0 Bft) NW 315 0 min -16,4 C -15,5 C 0,0 km/h (0 Bft)
19.01.2016 05:15 -14,4 C 21,2 C -13,5 C -14,8 C -15,5 C 0,0 C 85 % 88 % 0 % 1017,9 hPa 0,0 l/m 0,0 km/h (0 Bft) NW 315 0 min -16,4 C -15,5 C 0,0 km/h (0 Bft)
19.01.2016 05:20 -14,4 C 21,2 C -13,5 C -14,8 C -15,5 C 0,0 C 85 % 88 % 0 % 1017,9 hPa 0,0 l/m 0,0 km/h (0 Bft) NW 315 0 min -16,4 C -15,5 C 0,0 km/h (0 Bft)
19.01.2016 05:25 -14,4 C 21,2 C -13,5 C -14,8 C -15,5 C 0,0 C 85 % 88 % 0 % 1017,9 hPa 0,0 l/m 0,0 km/h (0 Bft) O-NO 67 0 min -16,4 C -15,5 C 0,0 km/h (0 Bft)
19.01.2016 05:30 -14,3 C 21,2 C -13,3 C -14,6 C -15,1 C 0,0 C 85 % 88 % 0 % 1017,8 hPa 0,0 l/m 0,0 km/h (0 Bft) O-SO 112 0 min -16,3 C -15,1 C 0,0 km/h (0 Bft)
19.01.2016 05:35 -14,4 C 21,2 C -13,4 C -14,6 C -15,1 C 0,0 C 85 % 88 % 0 % 1017,8 hPa 0,0 l/m 0,0 km/h (0 Bft) W-SW 247 0 min -16,4 C -15,1 C 0,0 km/h (0 Bft)
19.01.2016 05:40 -14,4 C 21,2 C -13,3 C -14,8 C -15,5 C 0,0 C 85 % 88 % 0 % 1017,8 hPa 0,0 l/m 0,0 km/h (0 Bft) W-SW 247 0 min -16,4 C -15,5 C 0,0 km/h (0 Bft)
19.01.2016 05:45 -14,5 C 21,2 C -13,5 C -14,9 C -15,7 C 0,0 C 85 % 88 % 0 % 1017,8 hPa 0,0 l/m 0,0 km/h (0 Bft) W-SW 247 0 min -16,4 C -15,7 C 0,0 km/h (0 Bft)
19.01.2016 05:50 -14,5 C 21,2 C -13,5 C -15,0 C -16,1 C 0,0 C 85 % 88 % 0 % 1017,9 hPa 0,0 l/m 0,0 km/h (0 Bft) W-SW 247 0 min -16,4 C -16,1 C 0,0 km/h (0 Bft)
19.01.2016 05:55 -14,5 C 21,2 C -13,6 C -15,0 C -16,1 C 0,0 C 85 % 88 % 0 % 1017,9 hPa 0,0 l/m 0,0 km/h (0 Bft) W 270 0 min -16,4 C -16,1 C 0,0 km/h (0 Bft)
19.01.2016 06:00 -14,7 C 21,2 C -13,6 C -15,2 C -16,3 C 0,0 C 84 % 88 % 0 % 1017,9 hPa 0,0 l/m 0,0 km/h (0 Bft) W-SW 247 0 min -16,8 C -16,3 C 0,0 km/h (0 Bft)
19.01.2016 06:05 -14,7 C 21,2 C -13,6 C -15,2 C -16,3 C 0,0 C 84 % 88 % 0 % 1017,9 hPa 0,0 l/m 0,0 km/h (0 Bft) W-SW 247 0 min -16,8 C -16,3 C 0,0 km/h (0 Bft)
19.01.2016 06:10 -14,7 C 21,2 C -13,6 C -15,2 C -16,3 C 0,0 C 85 % 88 % 0 % 1017,6 hPa 0,0 l/m 0,0 km/h (0 Bft) NW 315 0 min -16,6 C -16,3 C 0,0 km/h (0 Bft)
19.01.2016 06:15 -14,7 C 21,2 C -13,6 C -15,2 C -16,3 C 0,0 C 85 % 88 % 0 % 1017,6 hPa 0,0 l/m 0,0 km/h (0 Bft) W 270 0 min -16,6 C -16,3 C 0,0 km/h (0 Bft)
19.01.2016 06:20 -14,7 C 21,2 C -13,7 C -15,2 C -16,3 C 0,0 C 85 % 88 % 0 % 1017,6 hPa 0,0 l/m 0,0 km/h (0 Bft) W-NW 292 0 min -16,6 C -16,3 C 0,0 km/h (0 Bft)
19.01.2016 06:25 -14,7 C 21,2 C -13,8 C -15,2 C -16,3 C 0,0 C 85 % 88 % 0 % 1017,6 hPa 0,0 l/m 0,0 km/h (0 Bft) W-NW 292 0 min -16,6 C -16,3 C 0,0 km/h (0 Bft)
19.01.2016 06:30 -14,8 C 21,2 C -13,7 C -15,4 C -16,5 C 0,0 C 85 % 88 % 0 % 1017,6 hPa 0,0 l/m 0,0 km/h (0 Bft) W-SW 247 0 min -16,7 C -16,5 C 0,0 km/h (0 Bft)
19.01.2016 06:35 -14,9 C 21,2 C -13,8 C -15,5 C -16,7 C 0,0 C 85 % 88 % 0 % 1017,6 hPa 0,0 l/m 0,0 km/h (0 Bft) W 270 0 min -16,8 C -16,7 C 0,0 km/h (0 Bft)
19.01.2016 06:41 -14,9 C 21,2 C -13,7 C -15,5 C -16,7 C 0,0 C 84 % 88 % 0 % 1017,6 hPa 0,0 l/m 0,0 km/h (0 Bft) N 0 0 min -17,0 C -16,7 C 0,0 km/h (0 Bft)
19.01.2016 06:50 -14,9 C 21,1 C -13,9 C -15,6 C -16,9 C 0,0 C 85 % 88 % 0 % 1017,8 hPa 0,0 l/m 0,0 km/h (0 Bft) W-SW 247 0 min -16,8 C -16,9 C 0,0 km/h (0 Bft)
19.01.2016 06:55 -14,9 C 21,1 C -14,0 C -15,6 C -16,9 C 0,0 C 85 % 88 % 0 % 1017,8 hPa 0,0 l/m 0,0 km/h (0 Bft) W-SW 247 0 min -16,8 C -16,9 C 0,0 km/h (0 Bft)
19.01.2016 07:00 -14,9 C 21,1 C -13,7 C -15,5 C -16,7 C 0,0 C 85 % 88 % 0 % 1017,8 hPa 0,0 l/m 0,0 km/h (0 Bft) W-SW 247 0 min -16,8 C -16,7 C 0,0 km/h (0 Bft)
19.01.2016 07:05 -14,9 C 21,1 C -13,7 C -15,5 C -16,7 C 0,0 C 85 % 88 % 0 % 1017,8 hPa 0,0 l/m 0,0 km/h (0 Bft) W-SW 247 0 min -16,8 C -16,7 C 0,0 km/h (0 Bft)
19.01.2016 07:10 -14,9 C 21,1 C -13,7 C -15,5 C -16,7 C 0,0 C 85 % 88 % 0 % 1017,6 hPa 0,0 l/m 0,0 km/h (0 Bft) W-SW 247 0 min -16,8 C -16,7 C 0,0 km/h (0 Bft)
19.01.2016 07:15 -14,9 C 21,1 C -13,7 C -15,5 C -16,7 C 0,0 C 85 % 88 % 0 % 1017,6 hPa 0,0 l/m 0,0 km/h (0 Bft) W-SW 247 0 min -16,8 C -16,7 C 0,0 km/h (0 Bft)
19.01.2016 07:20 -14,9 C 21,1 C -13,7 C -15,5 C -16,7 C 0,0 C 85 % 88 % 0 % 1017,6 hPa 0,0 l/m 0,0 km/h (0 Bft) W-SW 247 0 min -16,8 C -16,7 C 0,0 km/h (0 Bft)
19.01.2016 07:25 -14,9 C 21,1 C -13,8 C -15,5 C -16,7 C 0,0 C 85 % 88 % 0 % 1017,6 hPa 0,0 l/m 0,0 km/h (0 Bft) O-NO 67 0 min -16,8 C -16,7 C 0,0 km/h (0 Bft)
19.01.2016 07:30 -14,9 C 21,1 C -13,7 C -15,4 C -16,3 C 0,0 C 85 % 88 % 0 % 1017,9 hPa 0,0 l/m 0,0 km/h (0 Bft) O-NO 67 0 min -16,8 C -16,3 C 0,0 km/h (0 Bft)
19.01.2016 07:35 -14,9 C 21,1 C -13,7 C -15,4 C -16,5 C 0,0 C 85 % 88 % 0 % 1017,9 hPa 0,0 l/m 0,0 km/h (0 Bft) SW 225 0 min -16,8 C -16,5 C 0,0 km/h (0 Bft)
19.01.2016 07:40 -14,9 C 21,1 C -13,9 C -15,4 C -16,5 C 0,0 C 85 % 88 % 0 % 1017,9 hPa 0,0 l/m 0,0 km/h (0 Bft) SW 225 0 min -16,8 C -16,5 C 0,0 km/h (0 Bft)
19.01.2016 07:45 -14,9 C 21,1 C -13,7 C -15,4 C -16,3 C 0,0 C 85 % 88 % 0 % 1017,9 hPa 0,0 l/m 0,0 km/h (0 Bft) SW 225 0 min -16,8 C -16,3 C 0,0 km/h (0 Bft)
19.01.2016 07:50 -14,9 C 21,1 C -13,9 C -15,5 C -16,7 C 0,0 C 85 % 88 % 0 % 1017,9 hPa 0,0 l/m 0,0 km/h (0 Bft) W-SW 247 0 min -16,8 C -16,7 C 0,0 km/h (0 Bft)
19.01.2016 07:55 -14,9 C 21,1 C -14,0 C -15,5 C -16,7 C 0,0 C 85 % 88 % 0 % 1017,9 hPa 0,0 l/m 0,0 km/h (0 Bft) W-NW 292 0 min -16,8 C -16,7 C 0,0 km/h (0 Bft)
19.01.2016 08:00 -15,1 C 21,1 C -14,1 C -15,6 C -16,7 C 0,0 C 85 % 87 % 0 % 1017,9 hPa 0,0 l/m 0,0 km/h (0 Bft) W-NW 292 0 min -17,0 C -16,7 C 0,0 km/h (0 Bft)
19.01.2016 08:05 -15,1 C 21,1 C -14,1 C -15,6 C -16,7 C 0,0 C 85 % 87 % 0 % 1017,9 hPa 0,0 l/m 0,0 km/h (0 Bft) W-NW 292 0 min -17,0 C -16,7 C 0,0 km/h (0 Bft)
19.01.2016 08:10 -15,1 C 21,1 C -14,1 C -15,6 C -16,5 C 0,0 C 85 % 87 % 0 % 1017,9 hPa 0,0 l/m 0,0 km/h (0 Bft) O-NO 67 0 min -17,0 C -16,5 C 0,0 km/h (0 Bft)
19.01.2016 08:15 -15,1 C 21,1 C -14,1 C -15,5 C -16,3 C 0,0 C 85 % 87 % 0 % 1017,9 hPa 0,0 l/m 0,0 km/h (0 Bft) O-NO 67 0 min -17,0 C -16,3 C 0,0 km/h (0 Bft)
19.01.2016 08:20 -14,9 C 21,1 C -14,1 C -15,2 C -15,9 C 0,0 C 85 % 88 % 0 % 1017,9 hPa 0,0 l/m 0,0 km/h (0 Bft) O-NO 67 0 min -16,8 C -15,9 C 0,0 km/h (0 Bft)
19.01.2016 08:25 -14,9 C 21,1 C -14,1 C -15,2 C -15,9 C 0,0 C 85 % 88 % 0 % 1017,9 hPa 0,0 l/m 0,0 km/h (0 Bft) O-NO 67 0 min -16,8 C -15,9 C 0,0 km/h (0 Bft)
19.01.2016 08:30 -15,1 C 21,1 C -13,9 C -15,5 C -16,3 C 0,0 C 85 % 88 % 0 % 1017,9 hPa 0,0 l/m 0,0 km/h (0 Bft) W-SW 247 0 min -17,0 C -16,3 C 0,0 km/h (0 Bft)
19.01.2016 08:35 -15,1 C 21,1 C -13,7 C -15,5 C -16,3 C 0,0 C 85 % 88 % 0 % 1017,9 hPa 0,0 l/m 0,0 km/h (0 Bft) W-SW 247 0 min -17,0 C -16,3 C 0,0 km/h (0 Bft)
19.01.2016 08:40 -15,1 C 21,1 C -13,7 C -15,5 C -16,3 C 0,0 C 85 % 88 % 0 % 1017,9 hPa 0,0 l/m 0,0 km/h (0 Bft) W-SW 247 0 min -17,0 C -16,3 C 0,0 km/h (0 Bft)
19.01.2016 08:45 -15,2 C 21,1 C -13,7 C -15,6 C -16,3 C 0,0 C 85 % 88 % 0 % 1017,9 hPa 0,0 l/m 0,0 km/h (0 Bft) W-SW 247 0 min -17,1 C -16,3 C 0,0 km/h (0 Bft)
19.01.2016 08:50 -15,2 C 21,1 C -13,7 C -15,5 C -16,1 C 0,0 C 85 % 88 % 0 % 1017,9 hPa 0,0 l/m 0,0 km/h (0 Bft) W-SW 247 0 min -17,1 C -16,1 C 0,0 km/h (0 Bft)
19.01.2016 08:55 -15,2 C 21,1 C -13,7 C -15,4 C -15,7 C 0,0 C 85 % 88 % 0 % 1017,9 hPa 0,0 l/m 0,0 km/h (0 Bft) SO 135 0 min -17,1 C -15,7 C 0,0 km/h (0 Bft)
19.01.2016 09:00 -15,2 C 21,1 C -13,7 C -15,2 C -15,3 C 0,0 C 85 % 88 % 0 % 1017,9 hPa 0,0 l/m 0,0 km/h (0 Bft) SW 225 0 min -17,1 C -15,3 C 0,0 km/h (0 Bft)
19.01.2016 09:05 -15,2 C 21,1 C -13,3 C -15,1 C -15,1 C 0,1 C 85 % 88 % 3 % 1017,9 hPa 0,0 l/m 0,0 km/h (0 Bft) S-SW 202 0 min -17,1 C -15,1 C 0,0 km/h (0 Bft)
19.01.2016 09:10 -14,9 C 21,1 C -13,1 C -14,2 C -14,2 C 0,7 C 85 % 88 % 18 % 1018,0 hPa 0,0 l/m 0,0 km/h (0 Bft) W-SW 247 0 min -16,8 C -14,2 C 0,0 km/h (0 Bft)
19.01.2016 09:15 -14,9 C 21,1 C -12,9 C -14,0 C -14,0 C 0,9 C 85 % 88 % 24 % 1018,0 hPa 0,0 l/m 0,0 km/h (0 Bft) W-SW 247 0 min -16,8 C -14,0 C 0,0 km/h (0 Bft)
19.01.2016 09:20 -14,7 C 21,1 C -12,8 C -13,9 C -13,9 C 0,8 C 86 % 88 % 21 % 1018,0 hPa 0,0 l/m 0,0 km/h (0 Bft) W-SW 247 0 min -16,5 C -13,9 C 0,0 km/h (0 Bft)
19.01.2016 09:25 -14,5 C 21,1 C -12,7 C -13,3 C -13,3 C 1,2 C 86 % 88 % 32 % 1018,0 hPa 0,0 l/m 0,0 km/h (0 Bft) W-SW 247 0 min -16,3 C -13,3 C 0,0 km/h (0 Bft)
19.01.2016 09:30 -14,5 C 21,1 C -12,7 C -13,4 C -13,4 C 1,1 C 86 % 88 % 29 % 1017,9 hPa 0,0 l/m 0,0 km/h (0 Bft) SW 225 0 min -16,3 C -13,4 C 0,0 km/h (0 Bft)
19.01.2016 09:35 -14,5 C 21,1 C -12,6 C -13,3 C -13,3 C 1,2 C 86 % 88 % 32 % 1017,9 hPa 0,0 l/m 0,0 km/h (0 Bft) SW 225 0 min -16,3 C -13,3 C 0,0 km/h (0 Bft)
19.01.2016 09:41 -14,4 C 21,1 C -12,4 C -12,7 C -12,7 C 1,7 C 86 % 89 % 45 % 1017,9 hPa 0,0 l/m 0,0 km/h (0 Bft) N 0 0 min -16,2 C -12,7 C 0,0 km/h (0 Bft)
19.01.2016 09:50 -14,1 C 21,0 C -12,1 C -12,3 C -12,3 C 1,8 C 86 % 89 % 47 % 1018,6 hPa 0,0 l/m 0,0 km/h (0 Bft) W-SW 247 0 min -15,9 C -12,3 C 0,0 km/h (0 Bft)
19.01.2016 09:55 -13,9 C 21,1 C -11,9 C -12,4 C -12,4 C 1,5 C 86 % 89 % 39 % 1018,6 hPa 0,0 l/m 0,0 km/h (0 Bft) W-SW 247 0 min -15,7 C -12,4 C 0,0 km/h (0 Bft)
19.01.2016 10:00 -13,7 C 21,1 C -11,7 C -12,4 C -12,4 C 1,3 C 86 % 89 % 34 % 1018,6 hPa 0,0 l/m 0,0 km/h (0 Bft) SW 225 0 min -15,5 C -12,4 C 0,0 km/h (0 Bft)
19.01.2016 10:05 -13,6 C 21,1 C -11,6 C -12,1 C -12,1 C 1,5 C 87 % 89 % 39 % 1018,6 hPa 0,0 l/m 0,0 km/h (0 Bft) SW 225 0 min -15,3 C -12,1 C 0,0 km/h (0 Bft)
19.01.2016 10:10 -13,3 C 21,1 C -11,3 C -11,8 C -11,8 C 1,5 C 87 % 89 % 39 % 1017,6 hPa 0,0 l/m 0,0 km/h (0 Bft) SW 225 0 min -15,0 C -11,8 C 0,0 km/h (0 Bft)
19.01.2016 10:15 -13,3 C 21,0 C -11,3 C -11,8 C -11,8 C 1,5 C 87 % 89 % 39 % 1017,6 hPa 0,0 l/m 0,0 km/h (0 Bft) W-SW 247 0 min -15,0 C -11,8 C 0,0 km/h (0 Bft)
19.01.2016 10:20 -13,1 C 21,1 C -10,9 C -11,7 C -11,7 C 1,4 C 87 % 89 % 37 % 1017,6 hPa 0,0 l/m 0,0 km/h (0 Bft) W-SW 247 0 min -14,8 C -11,7 C 0,0 km/h (0 Bft)
19.01.2016 10:25 -12,9 C 21,1 C -10,8 C -11,3 C -11,3 C 1,6 C 87 % 89 % 42 % 1017,6 hPa 0,0 l/m 0,0 km/h (0 Bft) W-SW 247 0 min -14,6 C -11,3 C 0,0 km/h (0 Bft)
19.01.2016 10:30 -12,5 C 21,1 C -10,5 C -10,6 C -10,6 C 1,9 C 87 % 89 % 50 % 1017,7 hPa 0,0 l/m 0,0 km/h (0 Bft) W-SW 247 0 min -14,2 C -10,6 C 0,0 km/h (0 Bft)
19.01.2016 10:35 -12,4 C 21,1 C -10,5 C -10,1 C -10,1 C 2,3 C 87 % 89 % 61 % 1017,7 hPa 0,0 l/m 0,0 km/h (0 Bft) W 270 0 min -14,1 C -10,1 C 1,8 km/h (1 Bft)
19.01.2016 10:40 -12,2 C 21,1 C -10,1 C -9,6 C -9,6 C 2,6 C 87 % 89 % 68 % 1017,7 hPa 0,0 l/m 0,0 km/h (0 Bft) W-SW 247 0 min -13,9 C -9,6 C 0,0 km/h (0 Bft)
19.01.2016 10:45 -12,1 C 21,1 C -9,7 C -9,5 C -9,5 C 2,6 C 87 % 90 % 68 % 1017,7 hPa 0,0 l/m 0,0 km/h (0 Bft) W-SW 247 0 min -13,8 C -9,5 C 0,0 km/h (0 Bft)
19.01.2016 10:50 -11,7 C 21,1 C -9,5 C -9,3 C -9,3 C 2,4 C 87 % 90 % 63 % 1017,7 hPa 0,0 l/m 0,0 km/h (0 Bft) SW 225 0 min -13,4 C -9,3 C 0,0 km/h (0 Bft)
19.01.2016 10:55 -11,7 C 21,1 C -9,3 C -9,2 C -9,2 C 2,5 C 87 % 90 % 66 % 1017,7 hPa 0,0 l/m 0,0 km/h (0 Bft) SW 225 0 min -13,4 C -9,2 C 0,0 km/h (0 Bft)
19.01.2016 11:00 -11,3 C 21,1 C -9,1 C -9,1 C -9,1 C 2,2 C 88 % 89 % 58 % 1017,7 hPa 0,0 l/m 0,0 km/h (0 Bft) SW 225 0 min -12,9 C -9,1 C 0,0 km/h (0 Bft)
19.01.2016 11:05 -11,3 C 21,1 C -9,1 C -8,8 C -8,8 C 2,5 C 88 % 89 % 66 % 1017,7 hPa 0,0 l/m 0,2 km/h (0 Bft) SW 225 0 min -12,9 C -8,8 C 1,6 km/h (1 Bft)
19.01.2016 11:10 -11,1 C 21,0 C -8,9 C -7,9 C -7,9 C 3,2 C 88 % 89 % 84 % 1017,9 hPa 0,0 l/m 0,3 km/h (0 Bft) SW 225 0 min -12,7 C -7,9 C 0,0 km/h (0 Bft)
19.01.2016 11:15 -10,9 C 21,0 C -8,7 C -7,5 C -7,5 C 3,4 C 88 % 90 % 89 % 1017,9 hPa 0,0 l/m 0,2 km/h (0 Bft) SW 225 5 min -12,5 C -7,5 C 0,0 km/h (0 Bft)
19.01.2016 11:20 -10,7 C 21,0 C -8,5 C -6,5 C -6,5 C 4,2 C 88 % 90 % 100 % 1017,9 hPa 0,0 l/m 0,0 km/h (0 Bft) SW 225 5 min -12,3 C -6,5 C 0,0 km/h (0 Bft)
19.01.2016 11:25 -10,5 C 21,0 C -8,5 C -6,6 C -6,6 C 3,9 C 87 % 90 % 100 % 1017,9 hPa 0,0 l/m 0,2 km/h (0 Bft) SW 225 5 min -12,2 C -6,6 C 1,9 km/h (1 Bft)
19.01.2016 11:30 -10,4 C 21,0 C -8,1 C -5,7 C -5,7 C 4,7 C 88 % 90 % 100 % 1018,2 hPa 0,0 l/m 0,6 km/h (0 Bft) SW 225 5 min -12,0 C -5,7 C 1,9 km/h (1 Bft)
19.01.2016 11:35 -10,1 C 21,0 C -8,1 C -5,5 C -5,5 C 4,6 C 88 % 90 % 100 % 1018,2 hPa 0,0 l/m 0,8 km/h (0 Bft) S-SW 202 5 min -11,7 C -5,5 C 0,0 km/h (0 Bft)
19.01.2016 11:40 -9,9 C 21,0 C -7,7 C -5,0 C -5,0 C 4,9 C 88 % 90 % 100 % 1018,2 hPa 0,0 l/m 0,3 km/h (0 Bft) W-SW 247 5 min -11,5 C -5,0 C 0,0 km/h (0 Bft)
19.01.2016 11:45 -9,7 C 21,0 C -7,7 C -5,4 C -5,4 C 4,3 C 88 % 90 % 100 % 1018,2 hPa 0,0 l/m 0,2 km/h (0 Bft) SW 225 5 min -11,3 C -5,4 C 0,0 km/h (0 Bft)
19.01.2016 11:50 -9,6 C 21,0 C -7,5 C -5,8 C -5,8 C 3,8 C 88 % 90 % 100 % 1018,2 hPa 0,0 l/m 0,5 km/h (0 Bft) SW 225 5 min -11,2 C -5,8 C 0,0 km/h (0 Bft)
19.01.2016 11:55 -9,5 C 21,0 C -7,3 C -5,9 C -5,9 C 3,6 C 88 % 90 % 95 % 1018,2 hPa 0,0 l/m 0,3 km/h (0 Bft) W-SW 247 5 min -11,1 C -5,9 C 2,1 km/h (1 Bft)
19.01.2016 12:00 -9,3 C 21,0 C -7,3 C -5,5 C -5,5 C 3,8 C 87 % 90 % 100 % 1018,2 hPa 0,0 l/m 0,3 km/h (0 Bft) SW 225 5 min -11,1 C -5,5 C 2,1 km/h (1 Bft)
19.01.2016 12:05 -9,1 C 21,0 C -7,2 C -5,5 C -5,5 C 3,6 C 88 % 90 % 95 % 1018,2 hPa 0,0 l/m 0,6 km/h (0 Bft) SW 225 5 min -10,7 C -5,5 C 2,6 km/h (1 Bft)
19.01.2016 12:10 -8,9 C 21,0 C -6,9 C -5,8 C -5,8 C 3,1 C 88 % 89 % 82 % 1017,9 hPa 0,0 l/m 1,4 km/h (1 Bft) SW 225 0 min -10,5 C -5,8 C 1,9 km/h (1 Bft)
19.01.2016 12:15 -8,7 C 21,1 C -6,8 C -5,8 C -5,8 C 2,9 C 88 % 89 % 76 % 1017,9 hPa 0,0 l/m 1,4 km/h (1 Bft) SW 225 0 min -10,3 C -5,8 C 2,9 km/h (1 Bft)
19.01.2016 12:20 -8,5 C 21,1 C -6,5 C -5,8 C -5,8 C 2,7 C 88 % 90 % 71 % 1017,9 hPa 0,0 l/m 0,8 km/h (0 Bft) S 180 0 min -10,1 C -5,8 C 0,0 km/h (0 Bft)
19.01.2016 12:25 -8,4 C 21,1 C -6,5 C -5,3 C -5,3 C 3,1 C 88 % 90 % 82 % 1017,9 hPa 0,0 l/m 0,5 km/h (0 Bft) W-SW 247 0 min -10,0 C -5,3 C 1,6 km/h (1 Bft)
19.01.2016 12:30 -8,1 C 21,1 C -6,3 C -4,8 C -4,8 C 3,3 C 88 % 90 % 87 % 1017,9 hPa 0,0 l/m 0,5 km/h (0 Bft) SW 225 5 min -9,7 C -4,8 C 0,0 km/h (0 Bft)
19.01.2016 12:35 -8,1 C 21,1 C -6,1 C -4,7 C -4,7 C 3,4 C 88 % 90 % 89 % 1017,9 hPa 0,0 l/m 0,3 km/h (0 Bft) SW 225 5 min -9,7 C -4,7 C 0,0 km/h (0 Bft)
19.01.2016 12:41 -7,9 C 21,1 C -5,9 C -4,4 C -4,4 C 3,5 C 87 % 90 % 92 % 1017,9 hPa 0,0 l/m 0,3 km/h (0 Bft) N 0 6 min -9,7 C -4,4 C 1,9 km/h (1 Bft)
19.01.2016 12:50 -7,5 C 21,0 C -5,7 C -4,1 C -4,1 C 3,4 C 87 % 89 % 89 % 1017,2 hPa 0,0 l/m 1,1 km/h (1 Bft) W-SW 247 9 min -9,3 C -4,1 C 2,6 km/h (1 Bft)
19.01.2016 12:55 -7,3 C 21,0 C -5,7 C -4,2 C -4,2 C 3,1 C 87 % 89 % 82 % 1017,2 hPa 0,0 l/m 1,1 km/h (1 Bft) SW 225 0 min -9,1 C -4,2 C 0,0 km/h (0 Bft)
19.01.2016 13:00 -7,2 C 21,0 C -5,5 C -3,9 C -3,9 C 3,3 C 87 % 89 % 87 % 1017,2 hPa 0,0 l/m 1,3 km/h (1 Bft) SW 225 5 min -9,0 C -3,9 C 0,0 km/h (0 Bft)
19.01.2016 13:05 -7,0 C 21,1 C -5,3 C -3,5 C -3,5 C 3,5 C 87 % 89 % 92 % 1017,2 hPa 0,0 l/m 1,3 km/h (1 Bft) W-SW 247 5 min -8,8 C -3,5 C 3,2 km/h (1 Bft)
19.01.2016 13:10 -6,8 C 21,1 C -5,2 C -3,3 C -3,3 C 3,5 C 87 % 89 % 92 % 1017,2 hPa 0,0 l/m 1,4 km/h (1 Bft) W-SW 247 5 min -8,6 C -3,3 C 0,0 km/h (0 Bft)
19.01.2016 13:15 -6,5 C 21,1 C -5,1 C -2,8 C -2,8 C 3,7 C 86 % 89 % 97 % 1017,2 hPa 0,0 l/m 1,4 km/h (1 Bft) W-SW 247 5 min -8,4 C -2,8 C 3,2 km/h (1 Bft)
19.01.2016 13:20 -6,3 C 21,1 C -4,9 C -2,4 C -2,4 C 3,9 C 86 % 89 % 100 % 1017,2 hPa 0,0 l/m 1,6 km/h (1 Bft) W-SW 247 5 min -8,2 C -2,4 C 3,7 km/h (1 Bft)
19.01.2016 13:25 -6,0 C 21,1 C -4,9 C -2,4 C -2,4 C 3,6 C 85 % 89 % 95 % 1017,2 hPa 0,0 l/m 2,4 km/h (1 Bft) S 180 5 min -8,1 C -2,4 C 2,7 km/h (1 Bft)
19.01.2016 13:30 -5,7 C 21,1 C -4,7 C -2,2 C -2,2 C 3,5 C 84 % 89 % 92 % 1017,2 hPa 0,0 l/m 2,7 km/h (1 Bft) SW 225 5 min -8,0 C -2,2 C 3,9 km/h (1 Bft)
19.01.2016 13:35 -5,5 C 21,1 C -4,7 C -1,2 C -1,2 C 4,3 C 84 % 89 % 100 % 1017,2 hPa 0,0 l/m 2,6 km/h (1 Bft) S-SW 202 5 min -7,8 C -1,2 C 1,9 km/h (1 Bft)
19.01.2016 13:40 -5,3 C 21,1 C -4,6 C -0,3 C -0,3 C 5,0 C 84 % 88 % 100 % 1017,2 hPa 0,7 l/m 2,7 km/h (1 Bft) SW 225 5 min -7,6 C -0,3 C 3,4 km/h (1 Bft)
19.01.2016 13:45 -4,9 C 21,1 C -4,5 C -0,2 C -0,2 C 4,7 C 83 % 88 % 100 % 1017,2 hPa 0,0 l/m 3,1 km/h (1 Bft) SW 225 5 min -7,3 C -0,2 C 4,7 km/h (1 Bft)
19.01.2016 13:50 -4,7 C 21,1 C -4,5 C 0,4 C 0,4 C 5,1 C 82 % 87 % 100 % 1017,2 hPa 0,0 l/m 2,7 km/h (1 Bft) SW 225 5 min -7,3 C 0,4 C 2,9 km/h (1 Bft)
19.01.2016 13:55 -4,5 C 21,1 C -4,5 C 0,2 C 0,2 C 4,7 C 82 % 87 % 100 % 1017,2 hPa 0,0 l/m 2,4 km/h (1 Bft) W 270 5 min -7,1 C 0,2 C 1,6 km/h (1 Bft)
19.01.2016 14:00 -4,3 C 21,1 C -4,4 C 0,7 C 0,7 C 5,0 C 81 % 87 % 100 % 1017,2 hPa 0,0 l/m 1,9 km/h (1 Bft) W-SW 247 5 min -7,1 C 0,7 C 2,9 km/h (1 Bft)
19.01.2016 14:05 -4,1 C 21,1 C -4,4 C 1,1 C 1,1 C 5,2 C 81 % 87 % 100 % 1017,2 hPa 0,0 l/m 1,8 km/h (1 Bft) W-SW 247 5 min -6,9 C 1,1 C 2,3 km/h (1 Bft)
19.01.2016 14:10 -4,1 C 21,0 C -4,2 C 1,4 C 1,4 C 5,5 C 80 % 87 % 100 % 1016,9 hPa 0,0 l/m 2,3 km/h (1 Bft) SW 225 5 min -7,0 C 1,4 C 3,1 km/h (1 Bft)
19.01.2016 14:15 -4,0 C 21,0 C -4,1 C 1,3 C 1,3 C 5,3 C 80 % 87 % 100 % 1016,9 hPa 0,0 l/m 2,4 km/h (1 Bft) S 180 5 min -6,9 C 1,3 C 3,2 km/h (1 Bft)
19.01.2016 14:20 -3,7 C 21,0 C -4,2 C 0,7 C 0,7 C 4,4 C 79 % 86 % 100 % 1016,9 hPa 0,0 l/m 2,9 km/h (1 Bft) W-SW 247 5 min -6,8 C 0,7 C 3,1 km/h (1 Bft)
19.01.2016 14:25 -3,7 C 21,0 C -4,1 C 0,7 C 0,7 C 4,4 C 79 % 86 % 100 % 1016,9 hPa 0,0 l/m 2,9 km/h (1 Bft) SW 225 5 min -6,8 C 0,7 C 5,1 km/h (1 Bft)
19.01.2016 14:30 -3,6 C 21,0 C -4,1 C 0,9 C 0,9 C 4,5 C 79 % 86 % 100 % 1016,5 hPa 0,0 l/m 2,7 km/h (1 Bft) W-SW 247 5 min -6,7 C 0,9 C 4,0 km/h (1 Bft)
19.01.2016 14:35 -3,3 C 21,0 C -4,1 C 0,7 C 0,7 C 4,0 C 78 % 86 % 100 % 1016,5 hPa 0,0 l/m 2,9 km/h (1 Bft) SW 225 5 min -6,6 C 0,7 C 3,2 km/h (1 Bft)
19.01.2016 14:40 -3,3 C 21,0 C -4,1 C 0,6 C 0,6 C 3,9 C 78 % 85 % 100 % 1016,5 hPa 0,0 l/m 3,1 km/h (1 Bft) SW 225 5 min -6,6 C 0,6 C 2,7 km/h (1 Bft)
19.01.2016 14:45 -3,1 C 21,0 C -4,1 C 0,8 C 0,8 C 3,9 C 77 % 85 % 100 % 1016,5 hPa 0,0 l/m 2,7 km/h (1 Bft) W-SW 247 5 min -6,5 C 0,8 C 3,2 km/h (1 Bft)
19.01.2016 14:50 -2,9 C 21,0 C -4,1 C 0,9 C 0,9 C 3,8 C 76 % 85 % 100 % 1015,9 hPa 0,0 l/m 2,6 km/h (1 Bft) SW 225 5 min -6,5 C 0,9 C 3,5 km/h (1 Bft)
19.01.2016 14:55 -2,9 C 21,0 C -4,1 C 0,9 C 0,9 C 3,8 C 76 % 85 % 100 % 1015,9 hPa 0,0 l/m 2,6 km/h (1 Bft) W 270 5 min -6,5 C 0,9 C 1,6 km/h (1 Bft)
19.01.2016 15:00 -2,9 C 21,0 C -4,1 C 1,2 C 1,2 C 4,1 C 76 % 85 % 100 % 1015,9 hPa 0,0 l/m 1,8 km/h (1 Bft) SW 225 5 min -6,5 C 1,2 C 2,3 km/h (1 Bft)
19.01.2016 15:05 -2,9 C 21,0 C -4,1 C 1,4 C 1,4 C 4,3 C 75 % 85 % 100 % 1015,9 hPa 0,0 l/m 1,3 km/h (1 Bft) W-SW 247 5 min -6,7 C 1,4 C 3,4 km/h (1 Bft)
19.01.2016 15:10 -3,2 C 21,0 C -4,1 C 1,2 C 1,2 C 4,4 C 75 % 84 % 100 % 1015,9 hPa 0,0 l/m 2,1 km/h (1 Bft) W-SW 247 5 min -7,0 C 1,2 C 2,4 km/h (1 Bft)
19.01.2016 15:15 -3,3 C 21,0 C -4,3 C 1,1 C 1,1 C 4,4 C 75 % 84 % 100 % 1015,9 hPa 0,0 l/m 2,4 km/h (1 Bft) S 180 5 min -7,1 C 1,1 C 2,9 km/h (1 Bft)
19.01.2016 15:20 -3,4 C 21,0 C -4,3 C 1,0 C 1,0 C 4,4 C 75 % 84 % 100 % 1015,9 hPa 0,0 l/m 1,6 km/h (1 Bft) W-SW 247 5 min -7,2 C 1,0 C 0,0 km/h (0 Bft)
19.01.2016 15:25 -3,3 C 21,0 C -4,3 C 0,9 C 0,9 C 4,2 C 75 % 84 % 100 % 1015,9 hPa 0,0 l/m 1,6 km/h (1 Bft) S-SW 202 5 min -7,1 C 0,9 C 2,6 km/h (1 Bft)
19.01.2016 15:30 -3,5 C 21,0 C -4,4 C -0,6 C -0,6 C 2,9 C 75 % 84 % 76 % 1016,0 hPa 0,0 l/m 2,1 km/h (1 Bft) W-SW 247 5 min -7,3 C -0,6 C 2,9 km/h (1 Bft)
19.01.2016 15:35 -3,6 C 21,0 C -4,5 C -1,8 C -1,8 C 1,8 C 75 % 84 % 47 % 1016,0 hPa 0,0 l/m 1,9 km/h (1 Bft) W-SW 247 5 min -7,4 C -1,8 C 1,8 km/h (1 Bft)
19.01.2016 15:41 -3,5 C 21,0 C -4,5 C -3,1 C -3,1 C 0,4 C 75 % 84 % 11 % 1016,0 hPa 0,0 l/m 1,6 km/h (1 Bft) N 0 0 min -7,3 C -3,1 C 2,9 km/h (1 Bft)
19.01.2016 15:50 -3,7 C 21,0 C -4,5 C -3,9 C -4,2 C 0,0 C 75 % 84 % 0 % 1016,0 hPa 0,0 l/m 1,8 km/h (1 Bft) W-SW 247 0 min -7,5 C -4,2 C 2,4 km/h (1 Bft)
19.01.2016 15:55 -3,7 C 21,0 C -4,7 C -4,0 C -4,5 C 0,0 C 75 % 84 % 0 % 1016,0 hPa 0,0 l/m 1,6 km/h (1 Bft) SW 225 0 min -7,5 C -4,5 C 2,6 km/h (1 Bft)
19.01.2016 16:00 -3,7 C 21,0 C -4,9 C -4,1 C -4,8 C 0,0 C 75 % 84 % 0 % 1016,0 hPa 0,0 l/m 1,6 km/h (1 Bft) W-SW 247 0 min -7,5 C -4,8 C 1,6 km/h (1 Bft)
19.01.2016 16:05 -3,9 C 21,0 C -4,9 C -4,3 C -5,0 C 0,0 C 75 % 84 % 0 % 1016,0 hPa 0,0 l/m 1,1 km/h (1 Bft) W-SW 247 0 min -7,7 C -5,0 C 0,0 km/h (0 Bft)
19.01.2016 16:10 -4,1 C 21,0 C -5,2 C -4,5 C -5,4 C 0,0 C 75 % 84 % 0 % 1016,1 hPa 0,0 l/m 0,0 km/h (0 Bft) SW 225 0 min -7,9 C -5,4 C 0,0 km/h (0 Bft)
19.01.2016 16:15 -4,1 C 21,0 C -5,3 C -4,6 C -5,6 C 0,0 C 75 % 84 % 0 % 1016,1 hPa 0,0 l/m 0,2 km/h (0 Bft) W-SW 247 0 min -7,9 C -5,6 C 2,1 km/h (1 Bft)
19.01.2016 16:20 -4,3 C 21,0 C -5,5 C -4,9 C -6,0 C 0,0 C 75 % 85 % 0 % 1016,1 hPa 0,0 l/m 0,2 km/h (0 Bft) W-SW 247 0 min -8,0 C -6,0 C 0,0 km/h (0 Bft)
19.01.2016 16:25 -4,5 C 21,0 C -5,7 C -5,0 C -6,1 C 0,0 C 75 % 84 % 0 % 1016,1 hPa 0,0 l/m 0,2 km/h (0 Bft) W-SW 247 0 min -8,2 C -6,1 C 0,0 km/h (0 Bft)
19.01.2016 16:30 -4,8 C 21,0 C -6,3 C -5,3 C -6,4 C 0,0 C 75 % 84 % 0 % 1016,0 hPa 0,0 l/m 0,0 km/h (0 Bft) N-NW 337 0 min -8,5 C -6,4 C 0,0 km/h (0 Bft)
19.01.2016 16:35 -4,9 C 21,0 C -6,5 C -5,5 C -6,8 C 0,0 C 75 % 84 % 0 % 1016,0 hPa 0,0 l/m 0,0 km/h (0 Bft) W-SW 247 0 min -8,6 C -6,8 C 0,0 km/h (0 Bft)
19.01.2016 16:40 -5,2 C 21,0 C -6,5 C -5,9 C -7,3 C 0,0 C 75 % 84 % 0 % 1016,0 hPa 0,0 l/m 0,0 km/h (0 Bft) W-SW 247 0 min -8,9 C -7,3 C 0,0 km/h (0 Bft)
19.01.2016 16:45 -5,3 C 21,0 C -6,7 C -6,1 C -7,6 C 0,0 C 75 % 85 % 0 % 1016,0 hPa 0,0 l/m 0,0 km/h (0 Bft) SW 225 0 min -9,0 C -7,6 C 0,0 km/h (0 Bft)
19.01.2016 16:50 -5,7 C 20,9 C -7,1 C -6,5 C -8,1 C 0,0 C 75 % 84 % 0 % 1015,9 hPa 0,0 l/m 0,0 km/h (0 Bft) O 90 0 min -9,4 C -8,1 C 0,0 km/h (0 Bft)
19.01.2016 16:55 -5,9 C 21,0 C -7,3 C -6,7 C -8,4 C 0,0 C 76 % 84 % 0 % 1015,9 hPa 0,0 l/m 0,0 km/h (0 Bft) O 90 0 min -9,4 C -8,4 C 0,0 km/h (0 Bft)
19.01.2016 17:00 -6,1 C 21,0 C -7,7 C -7,0 C -8,7 C 0,0 C 77 % 85 % 0 % 1015,9 hPa 0,0 l/m 0,0 km/h (0 Bft) O-NO 67 0 min -9,5 C -8,7 C 0,0 km/h (0 Bft)
19.01.2016 17:05 -6,3 C 21,0 C -7,7 C -7,2 C -8,9 C 0,0 C 76 % 85 % 0 % 1015,9 hPa 0,0 l/m 0,0 km/h (0 Bft) O-NO 67 0 min -9,8 C -8,9 C 0,0 km/h (0 Bft)
19.01.2016 17:10 -6,5 C 21,0 C -8,0 C -7,4 C -9,1 C 0,0 C 77 % 85 % 0 % 1015,9 hPa 0,0 l/m 0,0 km/h (0 Bft) O-NO 67 0 min -9,8 C -9,1 C 0,0 km/h (0 Bft)
19.01.2016 17:15 -6,8 C 21,0 C -8,1 C -7,6 C -9,2 C 0,0 C 77 % 85 % 0 % 1015,9 hPa 0,0 l/m 0,0 km/h (0 Bft) O-NO 67 0 min -10,1 C -9,2 C 0,0 km/h (0 Bft)
19.01.2016 17:20 -7,1 C 21,0 C -8,3 C -7,9 C -9,6 C 0,0 C 77 % 86 % 0 % 1015,9 hPa 0,0 l/m 0,0 km/h (0 Bft) SW 225 0 min -10,4 C -9,6 C 0,0 km/h (0 Bft)
19.01.2016 17:25 -7,3 C 21,0 C -8,4 C -8,1 C -9,8 C 0,0 C 77 % 86 % 0 % 1015,9 hPa 0,0 l/m 0,0 km/h (0 Bft) SW 225 0 min -10,6 C -9,8 C 0,0 km/h (0 Bft)
19.01.2016 17:30 -7,6 C 21,0 C -8,5 C -8,4 C -10,1 C 0,0 C 78 % 86 % 0 % 1015,9 hPa 0,0 l/m 0,0 km/h (0 Bft) SW 225 0 min -10,8 C -10,1 C 0,0 km/h (0 Bft)
19.01.2016 17:35 -7,7 C 21,0 C -8,7 C -8,6 C -10,3 C 0,0 C 78 % 86 % 0 % 1015,9 hPa 0,0 l/m 0,0 km/h (0 Bft) SW 225 0 min -10,9 C -10,3 C 0,0 km/h (0 Bft)
19.01.2016 17:40 -8,1 C 21,0 C -8,9 C -8,8 C -10,3 C 0,0 C 78 % 86 % 0 % 1015,9 hPa 0,0 l/m 0,0 km/h (0 Bft) O-NO 67 0 min -11,2 C -10,3 C 0,0 km/h (0 Bft)
19.01.2016 17:45 -8,2 C 21,0 C -8,9 C -8,9 C -10,2 C 0,0 C 78 % 86 % 0 % 1015,9 hPa 0,0 l/m 0,0 km/h (0 Bft) O-NO 67 0 min -11,3 C -10,2 C 0,0 km/h (0 Bft)
19.01.2016 17:50 -8,5 C 21,0 C -9,1 C -9,2 C -10,5 C 0,0 C 79 % 87 % 0 % 1016,3 hPa 0,0 l/m 0,0 km/h (0 Bft) NO 45 0 min -11,5 C -10,5 C 0,0 km/h (0 Bft)
19.01.2016 17:55 -8,5 C 21,0 C -9,1 C -9,2 C -10,7 C 0,0 C 79 % 87 % 0 % 1016,3 hPa 0,0 l/m 0,0 km/h (0 Bft) NO 45 0 min -11,5 C -10,7 C 0,0 km/h (0 Bft)
19.01.2016 18:00 -8,9 C 21,0 C -9,5 C -9,6 C -11,0 C 0,0 C 79 % 86 % 0 % 1016,3 hPa 0,0 l/m 0,0 km/h (0 Bft) NO 45 0 min -11,9 C -11,0 C 0,0 km/h (0 Bft)
19.01.2016 18:05 -8,9 C 21,0 C -9,5 C -9,6 C -11,1 C 0,0 C 79 % 87 % 0 % 1016,3 hPa 0,0 l/m 0,0 km/h (0 Bft) W-SW 247 0 min -11,9 C -11,1 C 0,0 km/h (0 Bft)
19.01.2016 18:10 -9,2 C 21,0 C -9,7 C -9,8 C -11,0 C 0,0 C 79 % 87 % 0 % 1016,3 hPa 0,0 l/m 0,0 km/h (0 Bft) W-SW 247 0 min -12,2 C -11,0 C 0,0 km/h (0 Bft)
19.01.2016 18:15 -9,3 C 21,0 C -9,7 C -9,9 C -11,0 C 0,0 C 80 % 87 % 0 % 1016,3 hPa 0,0 l/m 0,0 km/h (0 Bft) SW 225 0 min -12,1 C -11,0 C 0,0 km/h (0 Bft)
19.01.2016 18:20 -9,3 C 21,0 C -9,9 C -9,9 C -11,1 C 0,0 C 80 % 87 % 0 % 1016,3 hPa 0,0 l/m 0,0 km/h (0 Bft) O 90 0 min -12,1 C -11,1 C 0,0 km/h (0 Bft)
19.01.2016 18:25 -9,5 C 21,0 C -10,0 C -10,0 C -11,1 C 0,0 C 80 % 87 % 0 % 1016,3 hPa 0,0 l/m 0,0 km/h (0 Bft) W-SW 247 0 min -12,3 C -11,1 C 0,0 km/h (0 Bft)
19.01.2016 18:30 -9,7 C 21,0 C -10,1 C -10,2 C -11,2 C 0,0 C 81 % 87 % 0 % 1016,0 hPa 0,0 l/m 0,0 km/h (0 Bft) W-SW 247 0 min -12,3 C -11,2 C 0,0 km/h (0 Bft)
19.01.2016 18:35 -9,7 C 21,0 C -10,1 C -10,2 C -11,2 C 0,0 C 81 % 87 % 0 % 1016,0 hPa 0,0 l/m 0,0 km/h (0 Bft) W-SW 247 0 min -12,3 C -11,2 C 0,0 km/h (0 Bft)
19.01.2016 18:41 -9,7 C 21,0 C -10,1 C -10,2 C -11,1 C 0,0 C 82 % 88 % 0 % 1016,0 hPa 0,0 l/m 0,0 km/h (0 Bft) N 0 0 min -12,2 C -11,1 C 0,0 km/h (0 Bft)
19.01.2016 18:50 -9,7 C 21,0 C -10,1 C -10,1 C -11,0 C 0,0 C 82 % 88 % 0 % 1016,5 hPa 0,0 l/m 0,0 km/h (0 Bft) W-SW 247 0 min -12,2 C -11,0 C 0,0 km/h (0 Bft)
19.01.2016 18:55 -9,7 C 21,0 C -9,9 C -10,1 C -11,0 C 0,0 C 82 % 88 % 0 % 1016,5 hPa 0,0 l/m 0,2 km/h (0 Bft) SW 225 0 min -12,2 C -11,0 C 1,9 km/h (1 Bft)
19.01.2016 19:00 -9,7 C 21,0 C -9,7 C -10,1 C -10,8 C 0,0 C 83 % 89 % 0 % 1016,5 hPa 0,0 l/m 0,5 km/h (0 Bft) S-SW 202 0 min -12,0 C -10,8 C 1,9 km/h (1 Bft)
19.01.2016 19:05 -9,7 C 20,9 C -9,7 C -10,0 C -10,6 C 0,0 C 83 % 89 % 0 % 1016,5 hPa 0,0 l/m 1,0 km/h (0 Bft) SW 225 0 min -12,0 C -10,6 C 2,1 km/h (1 Bft)
19.01.2016 19:10 -9,7 C 20,9 C -9,5 C -10,0 C -10,5 C 0,0 C 83 % 89 % 0 % 1016,4 hPa 0,0 l/m 1,6 km/h (1 Bft) S-SW 202 0 min -12,0 C -10,5 C 0,0 km/h (0 Bft)
19.01.2016 19:15 -9,7 C 20,9 C -9,6 C -10,0 C -10,5 C 0,0 C 83 % 89 % 0 % 1016,4 hPa 0,0 l/m 1,0 km/h (0 Bft) W-SW 247 0 min -12,0 C -10,5 C 0,0 km/h (0 Bft)
19.01.2016 19:20 -9,7 C 20,9 C -9,7 C -10,0 C -10,7 C 0,0 C 83 % 89 % 0 % 1016,4 hPa 0,0 l/m 0,2 km/h (0 Bft) S-SO 157 0 min -12,0 C -10,7 C 0,0 km/h (0 Bft)
19.01.2016 19:25 -9,9 C 20,9 C -9,9 C -10,2 C -10,7 C 0,0 C 83 % 88 % 0 % 1016,4 hPa 0,0 l/m 0,0 km/h (0 Bft) N-NO 22 0 min -12,2 C -10,7 C 0,0 km/h (0 Bft)
19.01.2016 19:30 -10,0 C 20,9 C -10,1 C -10,3 C -10,8 C 0,0 C 83 % 88 % 0 % 1016,4 hPa 0,0 l/m 0,0 km/h (0 Bft) NO 45 0 min -12,3 C -10,8 C 0,0 km/h (0 Bft)
19.01.2016 19:35 -10,0 C 20,9 C -9,9 C -10,3 C -10,8 C 0,0 C 83 % 88 % 0 % 1016,4 hPa 0,0 l/m 0,2 km/h (0 Bft) S 180 0 min -12,3 C -10,8 C 2,3 km/h (1 Bft)
19.01.2016 19:40 -9,9 C 20,9 C -9,9 C -10,1 C -10,6 C 0,0 C 83 % 89 % 0 % 1016,4 hPa 0,0 l/m 0,3 km/h (0 Bft) NO 45 0 min -12,2 C -10,6 C 0,0 km/h (0 Bft)
19.01.2016 19:45 -10,0 C 20,9 C -9,7 C -10,2 C -10,5 C 0,0 C 83 % 89 % 0 % 1016,4 hPa 0,0 l/m 0,3 km/h (0 Bft) SW 225 0 min -12,3 C -10,5 C 0,0 km/h (0 Bft)
19.01.2016 19:50 -10,0 C 20,9 C -9,7 C -10,1 C -10,4 C 0,0 C 83 % 89 % 0 % 1015,8 hPa 0,0 l/m 0,0 km/h (0 Bft) SO 135 0 min -12,3 C -10,4 C 0,0 km/h (0 Bft)
19.01.2016 19:55 -10,0 C 20,9 C -9,7 C -10,1 C -10,4 C 0,0 C 83 % 89 % 0 % 1015,8 hPa 0,0 l/m 0,0 km/h (0 Bft) O-NO 67 0 min -12,3 C -10,4 C 0,0 km/h (0 Bft)
19.01.2016 20:00 -9,9 C 20,9 C -9,7 C -10,0 C -10,1 C 0,0 C 84 % 89 % 0 % 1015,8 hPa 0,0 l/m 0,0 km/h (0 Bft) NO 45 0 min -12,1 C -10,1 C 0,0 km/h (0 Bft)
19.01.2016 20:05 -9,7 C 20,9 C -9,5 C -9,8 C -10,0 C 0,0 C 84 % 89 % 0 % 1015,8 hPa 0,0 l/m 0,2 km/h (0 Bft) S 180 0 min -11,9 C -10,0 C 2,1 km/h (1 Bft)
19.01.2016 20:10 -9,7 C 20,9 C -9,3 C -9,7 C -9,8 C 0,0 C 84 % 89 % 0 % 1015,4 hPa 0,0 l/m 0,5 km/h (0 Bft) S-SW 202 0 min -11,9 C -9,8 C 3,2 km/h (1 Bft)
19.01.2016 20:15 -9,7 C 20,9 C -9,2 C -9,7 C -9,7 C 0,0 C 84 % 89 % 0 % 1015,4 hPa 0,0 l/m 1,1 km/h (1 Bft) S 180 0 min -11,9 C -9,7 C 4,7 km/h (1 Bft)
19.01.2016 20:20 -9,3 C 20,9 C -8,7 C -9,5 C -9,8 C 0,0 C 85 % 90 % 0 % 1015,4 hPa 0,0 l/m 2,3 km/h (1 Bft) S 180 0 min -11,3 C -9,8 C 6,8 km/h (2 Bft)
19.01.2016 20:25 -9,3 C 20,9 C -8,5 C -9,8 C -10,7 C 0,0 C 85 % 90 % 0 % 1015,4 hPa 0,0 l/m 3,5 km/h (1 Bft) S-SO 157 0 min -11,3 C -10,7 C 8,5 km/h (2 Bft)
19.01.2016 20:30 -8,9 C 20,9 C -8,3 C -9,5 C -10,8 C 0,0 C 85 % 90 % 0 % 1015,8 hPa 0,0 l/m 4,0 km/h (1 Bft) S-SO 157 0 min -10,9 C -10,8 C 2,7 km/h (1 Bft)
19.01.2016 20:35 -8,8 C 20,9 C -8,1 C -9,2 C -9,9 C 0,0 C 85 % 89 % 0 % 1015,8 hPa 0,0 l/m 3,1 km/h (1 Bft) S-SO 157 0 min -10,9 C -9,9 C 10,0 km/h (2 Bft)
19.01.2016 20:40 -8,5 C 20,9 C -8,1 C -8,6 C -8,9 C 0,0 C 84 % 89 % 0 % 1015,8 hPa 0,0 l/m 2,1 km/h (1 Bft) O-SO 112 0 min -10,7 C -8,9 C 0,0 km/h (0 Bft)
19.01.2016 20:45 -8,5 C 20,9 C -8,1 C -8,5 C -8,6 C 0,0 C 84 % 89 % 0 % 1015,8 hPa 0,0 l/m 1,4 km/h (1 Bft) O-SO 112 0 min -10,7 C -8,6 C 3,1 km/h (1 Bft)
19.01.2016 20:50 -8,5 C 20,9 C -7,7 C -8,5 C -8,6 C 0,0 C 84 % 89 % 0 % 1016,0 hPa 0,0 l/m 1,9 km/h (1 Bft) O-SO 112 0 min -10,7 C -8,6 C 5,3 km/h (1 Bft)
19.01.2016 20:55 -8,3 C 20,9 C -7,6 C -8,6 C -9,3 C 0,0 C 84 % 89 % 0 % 1016,0 hPa 0,0 l/m 2,7 km/h (1 Bft) SW 225 0 min -10,5 C -9,3 C 4,2 km/h (1 Bft)
19.01.2016 21:00 -8,1 C 20,9 C -7,5 C -8,7 C -10,0 C 0,0 C 84 % 89 % 0 % 1016,0 hPa 0,0 l/m 3,9 km/h (1 Bft) S 180 0 min -10,3 C -10,0 C 8,2 km/h (2 Bft)
19.01.2016 21:05 -7,9 C 20,9 C -7,3 C -8,6 C -9,9 C 0,0 C 84 % 89 % 0 % 1016,0 hPa 0,0 l/m 3,9 km/h (1 Bft) W-SW 247 0 min -10,1 C -9,9 C 3,2 km/h (1 Bft)
19.01.2016 21:10 -7,7 C 20,9 C -7,3 C -8,4 C -9,9 C 0,0 C 84 % 88 % 0 % 1016,0 hPa 0,0 l/m 4,0 km/h (1 Bft) W-SW 247 0 min -9,9 C -9,9 C 2,6 km/h (1 Bft)
19.01.2016 21:15 -7,7 C 20,9 C -7,3 C -8,4 C -9,8 C 0,0 C 84 % 88 % 0 % 1016,0 hPa 0,0 l/m 3,9 km/h (1 Bft) S 180 0 min -9,9 C -9,8 C 7,6 km/h (2 Bft)
19.01.2016 21:20 -7,6 C 20,9 C -7,3 C -8,2 C -9,4 C 0,0 C 83 % 88 % 0 % 1016,0 hPa 0,0 l/m 3,4 km/h (1 Bft) S-SW 202 0 min -10,0 C -9,4 C 3,9 km/h (1 Bft)
19.01.2016 21:25 -7,5 C 20,9 C -7,1 C -8,1 C -9,4 C 0,0 C 83 % 88 % 0 % 1016,0 hPa 0,0 l/m 3,5 km/h (1 Bft) S 180 0 min -9,9 C -9,4 C 11,4 km/h (2 Bft)
19.01.2016 21:30 -7,3 C 20,9 C -6,9 C -7,8 C -8,8 C 0,0 C 83 % 88 % 0 % 1016,0 hPa 0,0 l/m 2,9 km/h (1 Bft) W-SW 247 0 min -9,7 C -8,8 C 3,5 km/h (1 Bft)
19.01.2016 21:35 -7,3 C 20,9 C -6,9 C -7,7 C -8,6 C 0,0 C 83 % 87 % 0 % 1016,0 hPa 0,0 l/m 2,7 km/h (1 Bft) O 90 0 min -9,7 C -8,6 C 14,6 km/h (3 Bft)
19.01.2016 21:41 -7,2 C 20,9 C -6,8 C -7,7 C -8,7 C 0,0 C 83 % 88 % 0 % 1016,0 hPa 0,0 l/m 3,2 km/h (1 Bft) N 0 0 min -9,6 C -8,7 C 1,9 km/h (1 Bft)
19.01.2016 21:50 -6,9 C 20,9 C -6,6 C -7,9 C -9,9 C 0,0 C 82 % 87 % 0 % 1016,0 hPa 0,0 l/m 5,1 km/h (1 Bft) SO 135 0 min -9,4 C -12,9 C 5,1 km/h (1 Bft)
19.01.2016 21:55 -6,9 C 20,9 C -6,5 C -7,8 C -9,7 C 0,0 C 82 % 87 % 0 % 1016,0 hPa 0,0 l/m 5,1 km/h (1 Bft) SO 135 0 min -9,4 C -12,7 C 4,5 km/h (1 Bft)
19.01.2016 22:00 -6,9 C 20,9 C -6,5 C -7,4 C -8,3 C 0,0 C 82 % 87 % 0 % 1016,0 hPa 0,0 l/m 3,2 km/h (1 Bft) S-SO 157 0 min -9,4 C -8,3 C 3,2 km/h (1 Bft)
19.01.2016 22:05 -6,8 C 20,9 C -6,5 C -7,3 C -8,4 C 0,0 C 82 % 87 % 0 % 1016,0 hPa 0,0 l/m 3,4 km/h (1 Bft) W-SW 247 0 min -9,3 C -8,4 C 8,2 km/h (2 Bft)
19.01.2016 22:10 -6,7 C 20,9 C -6,4 C -7,1 C -7,9 C 0,0 C 81 % 86 % 0 % 1016,0 hPa 0,0 l/m 2,9 km/h (1 Bft) S-SO 157 0 min -9,4 C -7,9 C 4,7 km/h (1 Bft)
19.01.2016 22:15 -6,7 C 20,9 C -6,4 C -7,3 C -8,6 C 0,0 C 81 % 86 % 0 % 1016,0 hPa 0,0 l/m 3,7 km/h (1 Bft) W-SW 247 0 min -9,4 C -8,6 C 5,3 km/h (1 Bft)
19.01.2016 22:20 -6,5 C 20,9 C -6,4 C -7,2 C -8,7 C 0,0 C 82 % 86 % 0 % 1016,0 hPa 0,0 l/m 4,0 km/h (1 Bft) W-SW 247 0 min -9,0 C -8,7 C 4,2 km/h (1 Bft)
19.01.2016 22:25 -6,5 C 20,9 C -6,4 C -7,2 C -8,7 C 0,0 C 82 % 86 % 0 % 1016,0 hPa 0,0 l/m 4,0 km/h (1 Bft) N 360 0 min -9,0 C -8,7 C 7,9 km/h (2 Bft)
19.01.2016 22:30 -6,6 C 20,9 C -6,4 C -7,3 C -8,8 C 0,0 C 81 % 86 % 0 % 1016,1 hPa 0,0 l/m 4,2 km/h (1 Bft) SW 225 0 min -9,3 C -8,8 C 4,8 km/h (1 Bft)
19.01.2016 22:35 -6,6 C 20,9 C -6,3 C -7,0 C -7,8 C 0,0 C 81 % 86 % 0 % 1016,1 hPa 0,0 l/m 2,9 km/h (1 Bft) N-NW 337 0 min -9,3 C -7,8 C 0,0 km/h (0 Bft)
19.01.2016 22:40 -6,6 C 20,9 C -6,3 C -6,8 C -7,1 C 0,0 C 81 % 86 % 0 % 1016,1 hPa 0,0 l/m 2,3 km/h (1 Bft) SW 225 0 min -9,3 C -7,1 C 2,9 km/h (1 Bft)
19.01.2016 22:45 -6,5 C 20,9 C -6,3 C -6,6 C -6,9 C 0,0 C 81 % 86 % 0 % 1016,1 hPa 0,0 l/m 2,1 km/h (1 Bft) S 180 0 min -9,2 C -6,9 C 5,5 km/h (1 Bft)
19.01.2016 22:50 -6,5 C 20,9 C -6,3 C -6,6 C -6,9 C 0,0 C 81 % 86 % 0 % 1016,1 hPa 0,0 l/m 2,1 km/h (1 Bft) SW 225 0 min -9,2 C -6,9 C 0,0 km/h (0 Bft)
19.01.2016 22:55 -6,5 C 20,9 C -6,3 C -6,6 C -6,7 C 0,0 C 81 % 86 % 0 % 1016,1 hPa 0,0 l/m 1,6 km/h (1 Bft) N-NO 22 0 min -9,2 C -6,7 C 0,0 km/h (0 Bft)
19.01.2016 23:00 -6,5 C 20,9 C -6,3 C -6,6 C -6,7 C 0,0 C 81 % 86 % 0 % 1016,1 hPa 0,0 l/m 1,6 km/h (1 Bft) O-NO 67 0 min -9,2 C -6,7 C 2,7 km/h (1 Bft)
19.01.2016 23:05 -6,5 C 20,9 C -6,1 C -6,6 C -6,7 C 0,0 C 81 % 86 % 0 % 1016,1 hPa 0,0 l/m 1,9 km/h (1 Bft) NO 45 0 min -9,2 C -6,7 C 0,0 km/h (0 Bft)
19.01.2016 23:10 -6,5 C 20,9 C -6,1 C -6,6 C -6,7 C 0,0 C 81 % 86 % 0 % 1015,1 hPa 0,0 l/m 1,9 km/h (1 Bft) S 180 0 min -9,2 C -6,7 C 3,1 km/h (1 Bft)
19.01.2016 23:15 -6,4 C 20,9 C -6,1 C -6,7 C -7,4 C 0,0 C 80 % 85 % 0 % 1015,1 hPa 0,0 l/m 2,6 km/h (1 Bft) W 270 0 min -9,3 C -7,4 C 2,9 km/h (1 Bft)
19.01.2016 23:20 -6,4 C 20,9 C -6,1 C -6,9 C -7,8 C 0,0 C 80 % 85 % 0 % 1015,1 hPa 0,0 l/m 3,1 km/h (1 Bft) SO 135 0 min -9,3 C -7,8 C 1,9 km/h (1 Bft)
19.01.2016 23:25 -6,3 C 20,9 C -6,1 C -6,6 C -7,3 C 0,0 C 80 % 85 % 0 % 1015,1 hPa 0,0 l/m 2,4 km/h (1 Bft) S 180 0 min -9,2 C -7,3 C 5,3 km/h (1 Bft)
19.01.2016 23:30 -6,3 C 20,9 C -6,1 C -6,8 C -7,7 C 0,0 C 80 % 85 % 0 % 1015,5 hPa 0,0 l/m 2,9 km/h (1 Bft) S-SO 157 0 min -9,2 C -7,7 C 6,3 km/h (2 Bft)
19.01.2016 23:35 -6,3 C 20,9 C -6,1 C -6,9 C -8,2 C 0,0 C 80 % 85 % 0 % 1015,5 hPa 0,0 l/m 3,5 km/h (1 Bft) SO 135 0 min -9,2 C -8,2 C 0,0 km/h (0 Bft)
19.01.2016 23:40 -6,3 C 20,9 C -6,1 C -6,7 C -7,6 C 0,0 C 80 % 85 % 0 % 1015,5 hPa 0,0 l/m 2,7 km/h (1 Bft) W-SW 247 0 min -9,2 C -7,6 C 2,7 km/h (1 Bft)
19.01.2016 23:45 -6,3 C 20,9 C -6,1 C -6,6 C -7,3 C 0,0 C 80 % 85 % 0 % 1015,5 hPa 0,0 l/m 2,4 km/h (1 Bft) W 270 0 min -9,2 C -7,3 C 2,6 km/h (1 Bft)
19.01.2016 23:50 -6,3 C 20,9 C -6,3 C -6,7 C -7,4 C 0,0 C 79 % 85 % 0 % 1015,0 hPa 0,0 l/m 2,6 km/h (1 Bft) NW 315 0 min -9,3 C -7,4 C 3,1 km/h (1 Bft)
19.01.2016 23:55 -6,3 C 20,9 C -6,3 C -6,7 C -7,5 C 0,0 C 79 % 85 % 0 % 1015,0 hPa 0,0 l/m 2,6 km/h (1 Bft) S 180 0 min -9,3 C -7,5 C 0,0 km/h (0 Bft)
_ Min-Zeit 08:45 16:50 08:00 06:50 06:50 00:00 15:05 15:10 00:00 23:50 - 00:00 - - - 08:45 06:50 00:00
Minimum _ -15,2 C 20,9 C -14,1 C -15,6 C -16,9 C 0,0 C 75 % 84 % 0 % 1015,0 hPa - 0,0 km/h (0 Bft) - - - -17,1 C -16,9 C 0,0 km/h (0 Bft)
_ Max-Zeit 14:50 00:00 14:15 14:10 14:10 14:10 11:00 10:45 11:20 00:10 13:40 21:50 - - 12:50 14:50 14:10 21:35
Maximum _ -2,9 C 21,4 C -4,1 C 1,4 C 1,4 C 5,5 C 88 % 90 % 100 % 1019,5 hPa 0,7 l/m 5,1 km/h
SO (1 Bft)
- - 9 min -6,5 C 1,4 C 14,6 km/h
O (3 Bft)
Durchschnitt _ -10,2 C 21,1 C -9,6 C -9,7 C -10,2 C 0,9 C 83 % 88 % 21 % 1017,2 hPa #0,7 l/m 0,8 km/h (0 Bft) W-SW - #4:00 h -12,6 C -10,3 C 1,2 km/h (1 Bft)
2016 www.wetterstation-wechselburg.de